STARLINK-37685, 69373

Orbit data source: Space-Track

STARLINK-37685, 69373 is a payload satellite owned by SpaceX/Seattle (US) in LEO that was launched on Thu, 04 Jun 2026 UTC via an FALCON 9 launch vehicle from the Air Force Eastern Test Range (AFETR). Payload-class satellites include a variety of spacecraft equipped with specific instruments for various scientific and technological missions. These include communications satellites like Starlink; space stations such as the ISS; scientific satellites like the Hubble; Earth observation satellites from companies like Planet Labs, Umbra, and HawkEye 360; GPS; miniature CubeSats for education and research; and military/defense satellites.

Loading next visibility...
Identifier
69373, 2026-123W
Orbit
LEO
Country
Flag of USUS
Related business
Manufacturer
SpaceX/Seattle
Mission
Operational spacecraft
Bus & Motor
STARLINK V2MO, Unknown motor
Mass
575 kg wet, ~530 kg dry
Launch date (UTC)
2026-06-04 (2 months ago)
Launch vehicle
FALCON 9
Launch site
Air Force Eastern Test Range (AFETR)
Object type
Payload
Rocket body
Debris
Shape & HBR
BOX + PAN, 17.7 m
Radar Cross Section
Large (>1 m²)

Expand to show TLE details & history
Last TLE update: 18 hours ago

TLE from 18 hours ago
0 STARLINK-37685
1 69373U 26123W   26207.17530976  .00108350  00000-0  70081-3 0  9993
2 69373  53.1615  46.3655 0001213  27.9796 332.1289 15.75276874  8207
Epoch: 2026-07-26T04:12Z
TLE epoch observation values (Epoch: 2026-07-26T04:12:26.763Z)
Latitude
-0.00004°
Longitude
39.37695°
Altitude
344.04 km
Speed
7.704 km/s
True Right ascension
03h 05m 27s
True Declination
0° 00' 00"
Sunlit
Object was in daylight at epoch
Visualization orbit readout
Latitude
Unknown
Longitude
Unknown
Altitude
Unknown
Speed
Unknown
Apparent Right ascension
Unknown
Apparent Declination
Unknown
Sunlit
N/A
Visualization observer readout
Local Sidereal Time
11:37:14
Azimuth
Unknown
Elevation
Unknown
Doppler factor
Unknown
Orbital elements
Apogee altitude
344.92 km
Perigee altitude
343.289 km
Semi-major axis
6,722.241 km
Eccentricity
0.00012
Inclination
53.1615°
RAAN
46.3655°
Arg. of periapsis
27.9796°
True anomaly
332.1224°
Mean anomaly
332.1289°
Eccentric anomaly
332.12565°
Mean motion
3.93797 °/min
Orbital period
91.42 mins
BSTAR
0.00070081
Loading maneuver chart data...
Computing Atmospheric mass density...
Loading historical data...
Loading historical data...
Loading historical data...
Loading historical data...
Loading historical data...
Loading historical data...
Loading historical data...

Documentation

Showing up to 5 results
|